This demonstration page uses our WeatherBlox Daily Observations layout. Learn more.

39.01783, -85.05884

Hourly Observations for June 20, 2019

Temp ( °F °C ) Dew Point ( °F °C ) Humidity (%) Winds ( mph kmh ) Pressure ( in mb ) Visibility ( mi km ) Precip ( " mm )
12:52 am 00:52 Cloudy with Light Rain 69 20.6 67 19.4 93 93 SSW 3 6 29.62 1003 5 8.04672 0.01 0.254
1:34 am 01:34 Cloudy 69 20.6 67 19.4 93 93 SSW 6 9 29.62 1003 7 11.265408 0.001 0.001
1:52 am 01:52 Cloudy with Mist and Fog 69 20.6 66 18.9 90 90 SSW 7 11 29.59 1002 6 9.656064 0.001 0.001
2:52 am 02:52 Cloudy 69 20.6 66 18.9 90 90 SSW 6 9 29.56 1001 8 12.874752 0.001 0.001
3:52 am 03:52 Cloudy 68 20 66 18.9 93 93 SSW 8 13 29.56 1001 9 14.484096 0 0
4:52 am 04:52 Cloudy 68 20 66 18.9 93 93 SSW 8 13 29.56 1001 7 11.265408 0 0
5:52 am 05:52 Cloudy with Mist and Fog 68 20 66 18.9 93 93 SW 8 13 29.56 1001 6 9.656064 0 0
6:45 am 06:45 Cloudy with Mist and Fog 68 20 65 18.3 90 90 SSW 9 15 29.59 1002 6 9.656064 0 0
6:52 am 06:52 Cloudy with Mist and Fog 68 20 65 18.3 90 90 SSW 9 15 29.59 1002 6 9.656064 0 0
7:11 am 07:11 Cloudy with Mist and Fog 68 20 65 18.3 90 90 SSW 8 13 29.59 1002 4 6.437376 0 0
7:52 am 07:52 Cloudy with Mist and Fog 68 20 65 18.3 90 90 SSW 10 17 29.59 1002 5 8.04672 0 0
8:52 am 08:52 Cloudy with Mist and Fog 68 20 65 18.3 90 90 SSW 10 17 29.59 1002 3 4.828032 0 0
8:56 am 08:56 Cloudy with Mist and Fog 68 20 65 18.3 90 90 SSW 8 13 29.59 1002 2 3.218688 0 0
9:52 am 09:52 Cloudy with Mist and Fog 69 20.6 66 18.9 90 90 SSW 9 15 29.59 1002 2 3.218688 0 0
10:52 am 10:52 Cloudy with Mist and Fog 71 21.7 67 19.4 87 87 SW 8 13 29.59 1002 2 3.218688 0 0
11:07 am 11:07 Cloudy with Mist and Fog 71 21.7 67 19.4 87 87 SSW 13 20 29.62 1003 6 9.656064 0 0
11:52 am 11:52 Cloudy 72 22.2 66 18.9 82 82 SW 13 20 29.59 1002 8 12.874752 0 0
12:10 pm 12:10 Cloudy 72 22.2 66 18.9 82 82 SW 14 22 29.59 1002 8 12.874752 0 0
12:52 pm 12:52 Cloudy 73 22.8 65 18.3 76 76 SW 15 24 29.59 1002 9 14.484096 0 0
2:52 pm 14:52 Cloudy 69 20.6 61 16.1 76 76 WSW 16 26 29.62 1003 10 16.09344 0 0
3:52 pm 15:52 Cloudy 67 19.4 60 15.6 79 79 W 14 22 29.65 1004 10 16.09344 0 0
4:52 pm 16:52 Cloudy 68 20 61 16.1 78 78 W 21 33 29.68 1005 10 16.09344 0 0
5:15 pm 17:15 Cloudy 68 20 61 16.1 78 78 W 13 20 29.68 1005 10 16.09344 0 0
5:52 pm 17:52 Cloudy 69 20.6 62 16.7 78 78 W 10 17 29.68 1005 10 16.09344 0 0
6:52 pm 18:52 Cloudy 70 21.1 61 16.1 73 73 WNW 14 22 29.71 1006 10 16.09344 0 0
7:22 pm 19:22 Cloudy 70 21.1 61 16.1 73 73 WNW 10 17 29.74 1007 10 16.09344 0 0
7:52 pm 19:52 Mostly Cloudy 70 21.1 61 16.1 73 73 WNW 13 20 29.74 1007 10 16.09344 0 0
8:52 pm 20:52 Mostly Cloudy 69 20.6 61 16.1 76 76 WNW 13 20 29.77 1008 10 16.09344 0 0
9:52 pm 21:52 Cloudy 69 20.6 61 16.1 76 76 WNW 10 17 29.77 1008 10 16.09344 0 0
10:52 pm 22:52 Cloudy 68 20 60 15.6 76 76 WNW 10 17 29.8 1009 10 16.09344 0 0
11:52 pm 23:52 Mostly Cloudy 68 20 60 15.6 76 76 WNW 13 20 29.83 1010 10 16.09344 0 0

Powered by AerisWeather